Starlink 32584

operational
NORAD ID: 62179 Int'l Des: 2024-225 Owner: SPXS Country: US Constellation: starlink
LEOCIRCULAR

Starlink 32584について

説明を読み込み中...

リアルタイム位置

3D地球を読み込み中...

次回通過

高度履歴

Altitude vs Time

uPlot chart will show altitude changes over time

軌道要素

1 62179U 24225S 25256.69646352 .00002390 00000-0 20799-3 0 9995
2 62179 70.0002 250.6306 0003299 270.8760 89.2021 14.98335641 43363
Epoch: Sep 13, 2025 • Age: 43 hours

現在のステータス

高度 587.4 km
速度 7.57 km/s
衛星直下点 -46.01°S, 77.43°W
打ち上げ日 Nov 30, 2024
運用期間 0.7 years
タイプ internet

技術仕様

分類 Payload
質量 730.00 kg
乾燥質量 700.00 kg
総質量 730.00 kg
長さ 0.30 m
直径 4.10 m
スパン 29.00 m
形状 Box + pan
製造者 SPXS
バスタイプ Starlink V2M
フェーズステータス In Orbit
所有者/国 SPXS/US

大規模コンステレーション

Loading constellations...